Location: Nitra
(0.0000°N, 18.0833°E)
Time: 05:57:35
(UTC+01:00)

GPS 2-04 Rocket1 - Pass Details

Date: 24 January 2021
Orbit: 416 x 543 km, 35.6° (Epoch: 04 March)

Event Time Altitude Azimuth Distance (km) Brightness Sun altitude
Rises 18:30:35 0° 212° (SSW) 2,350 6.9 -7.3°
Reaches altitude 10° 18:33:02 10° 195° (SSW) 1,481 5.5 -7.8°
Maximum altitude 18:35:41 21° 143° (SE) 972 3.9 -8.5°
Enters shadow 18:38:12 11° 92° (E) 1,437 4.4 -9.1°
